Location: Unspecified
(0.0000°N, 0.0000°E)
Time: 23:30:08
(UTC+00:00)

Kosmos-2266 - Pass Details

Date: 09 June 2023
Orbit: 945 x 1018 km, 82.9° (Epoch: 28 September)

Event Time Altitude Azimuth Distance (km) Brightness Sun altitude
Rises 18:14:10 0° 176° (S) 3,643 8.2 -3.4°
Reaches altitude 10° 18:16:44 10° 172° (S) 2,687 7.5 -4.0°
Maximum altitude 18:22:45 60° 93° (E) 1,080 5.5 -5.4°
Drops below altitude 10° 18:28:41 10° 14° (NNE) 2,654 7.9 -6.8°
Sets 18:31:12 0° 11° (N) 3,596 8.6 -7.3°
